Regional Weather Roundup
Issued by NWS

Home | Current Version | Previous Version | Text Only | Print | Product List | Glossary On
Versions: 1 2 3 4 5 6 7 8 9 10 11 12 13 14 15 16 17 18 19 20 21 22 23 24 25 26 27 28 29 30 31 32 33 34 35 36 37 38 39 40 41 42 43 44 45 46 47 48 49 50
000
ASUS43 KTOP 210808
RWRKS

WEATHER ROUNDUP FOR KANSAS
NATIONAL WEATHER SERVICE GOODLAND KS
200 AM CST SAT JAN 21 2017

NOTE:  "FAIR" INDICATES FEW OR NO CLOUDS BELOW 12,000 FEET WITH NO
SIGNIFICANT WEATHER AND/OR OBSTRUCTIONS TO VISIBILITY.

KSZ001>006-013>018-027>032-041>047-210900-
NORTHWEST KANSAS

CITY           SKY/WX    TMP DP  RH WIND       PRES   REMARKS
GOODLAND       CLEAR     28  26  92 W5        29.43F
HAYS           CLEAR     33  31  92 W10       29.45F WCI  25
HILL CITY      CLEAR     35  33  92 W10       29.44S WCI  27
RUSSELL        CLEAR     34  33  96 W9        29.43F
$$

KSZ061>065-074>080-084>089-210900-
SOUTHWEST KANSAS

CITY           SKY/WX    TMP DP  RH WIND       PRES   REMARKS
DODGE CITY     CLEAR     32  30  92 SW9       29.50R
ELKHART          N/A     32  25  76 S8          N/A
GARDEN CITY    CLEAR     28  26  92 W8        29.49F
GREAT BEND     CLEAR     32  31  96 W8        29.48S
LIBERAL        CLEAR     28  23  80 SW6       29.49F
PRATT          CLEAR     31  29  94 SW9       29.51R
$$

KSZ066>073-081>083-090>101-210900-
SOUTHEAST KANSAS

CITY           SKY/WX    TMP DP  RH WIND       PRES   REMARKS
CHANUTE        CLEAR     43  36  76 SW9       29.49R
COFFEYVILLE    CLEAR     48  36  63 SW7       29.52R
HUTCHINSON     CLEAR     37  34  89 W3        29.48R
MEDICINE LODGE   N/A     35  32  88 W3        29.52R
NEWTON         CLEAR     38  37  97 W13       29.48R WCI  30
PARSONS        CLEAR     49  36  61 SW9       29.52R
WICHITA INTL   CLEAR     34  33  96 W8        29.50R
WICHITA JABRA  CLEAR     39  37  92 W13       29.49R WCI  31
WICHITA MCCONL CLEAR     37  35  94 W8        29.50R
WINFIELD       CLEAR     39  36  89 SW7       29.53R
$$

KSZ007>012-019>026-033>040-048>060-102>105-210900-
NORTHEAST KANSAS

CITY           SKY/WX    TMP DP  RH WIND       PRES   REMARKS
CONCORDIA      CLOUDY    41  40  96 SW7       29.42S
EMPORIA        MOCLDY    39  39 100 W9        29.46R FOG
LAWRENCE       FOG       35  35 100 W6        29.44R VSB 1
MANHATTAN      CLOUDY    42  41  96 SW5       29.44R FOG
MARYSVILLE     CLOUDY    43  43 100 SW5       29.41S FOG
OLATHE IND     CLEAR     35  35 100 S6        29.42F FOG
OLATHE EXE     CLEAR     36  36 100 S5        29.42S FOG
SALINA           N/A    N/A N/A N/A MISG        N/A
TOPEKA BILLARD PTCLDY    41  38  89 SW5       29.43S
TOPEKA FORBES  FOG       39  38  96 SW7       29.43S VSB 1/4
$$



USA.gov is the U.S. government's official web portal to all federal, state and local government web resources and services.